| time (UTC) | temp C | wind direction | speed KPH | gust KPH | rain 1hr cm | rain 24hr cm | rain mn cm | humidity % | barometer mb |
| 20260506221530 | 7 | 0 | 0.0 | 0.0 | 0.00 | 0.00 | 0.00 | 76 | 1015.1 |
| 20260506220035 | 7 | 0 | 0.0 | 1.6 | 0.00 | 0.00 | 0.00 | 76 | 1014.9 |
| 20260506214529 | 7 | 0 | 0.0 | 0.0 | 0.00 | 0.00 | 0.00 | 75 | 1014.9 |
| 20260506213033 | 8 | 0 | 0.0 | 1.6 | 0.00 | 0.00 | 0.00 | 73 | 1015.0 |
| 20260506211530 | 8 | 0 | 0.0 | 3.2 | 0.00 | 0.00 | 0.00 | 72 | 1015.0 |
| 20260506210047 | 8 | 0 | 0.0 | 3.2 | 0.00 | 0.00 | 0.00 | 71 | 1014.8 |
| 20260506204530 | 9 | 30 | 0.0 | 3.2 | 0.00 | 0.00 | 0.00 | 70 | 1014.7 |
| 20260506203031 | 10 | 21 | 0.0 | 3.2 | 0.00 | 0.00 | 0.00 | 70 | 1014.7 |
| 20260506201530 | 10 | 0 | 0.0 | 3.2 | 0.00 | 0.00 | 0.00 | 70 | 1014.6 |
| 20260506200034 | 10 | 78 | 0.0 | 3.2 | 0.00 | 0.00 | 0.00 | 69 | 1014.4 |
| 20260506194532 | 10 | 0 | 0.0 | 3.2 | 0.00 | 0.00 | 0.00 | 68 | 1014.4 |
| 20260506193036 | 10 | 0 | 0.0 | 4.8 | 0.00 | 0.00 | 0.00 | 67 | 1014.1 |
| 20260506191530 | 10 | 52 | 0.0 | 8.0 | 0.00 | 0.00 | 0.00 | 67 | 1014.1 |
| 20260506190033 | 11 | 324 | 0.0 | 6.4 | 0.00 | 0.00 | 0.00 | 67 | 1014.1 |
| 20260506184537 | 11 | 322 | 0.0 | 4.8 | 0.00 | 0.00 | 0.00 | 68 | 1014.0 |
| 20260506183030 | 11 | 318 | 1.6 | 6.4 | 0.00 | 0.00 | 0.00 | 67 | 1013.9 |
| 20260506181539 | 11 | 23 | 1.6 | 6.4 | 0.00 | 0.00 | 0.00 | 66 | 1013.8 |
| 20260506180030 | 11 | 326 | 1.6 | 8.0 | 0.00 | 0.00 | 0.00 | 64 | 1013.5 |
| 20260506174535 | 12 | 25 | 1.6 | 9.7 | 0.00 | 0.00 | 0.00 | 63 | 1013.3 |
| 20260506173032 | 11 | 300 | 0.0 | 4.8 | 0.00 | 0.00 | 0.00 | 64 | 1013.3 |
| 20260506171535 | 11 | 309 | 0.0 | 8.0 | 0.00 | 0.00 | 0.00 | 65 | 1013.3 |
| 20260506170037 | 11 | 345 | 1.6 | 8.0 | 0.00 | 0.00 | 0.00 | 64 | 1013.3 |
| 20260506164546 | 12 | 32 | 4.8 | 11.3 | 0.00 | 0.00 | 0.00 | 62 | 1013.1 |
| 20260506163035 | 12 | 50 | 4.8 | 11.3 | 0.00 | 0.00 | 0.00 | 63 | 1013.0 |
| 20260506161530 | 12 | 65 | 4.8 | 11.3 | 0.00 | 0.00 | 0.00 | 61 | 1012.9 |
| 20260506160034 | 12 | 66 | 1.6 | 8.0 | 0.00 | 0.00 | 0.00 | 62 | 1013.0 |
| 20260506154533 | 12 | 347 | 3.2 | 9.7 | 0.00 | 0.00 | 0.00 | 62 | 1013.0 |
| 20260506153032 | 12 | 302 | 3.2 | 12.9 | 0.00 | 0.00 | 0.00 | 60 | 1013.0 |
| 20260506151533 | 12 | 282 | 4.8 | 14.5 | 0.00 | 0.00 | 0.00 | 57 | 1013.1 |
| 20260506150030 | 12 | 38 | 6.4 | 17.7 | 0.00 | 0.00 | 0.00 | 58 | 1013.1 |
| 20260506144530 | 13 | 58 | 4.8 | 17.7 | 0.00 | 0.00 | 0.00 | 58 | 1013.2 |
| 20260506143037 | 12 | 316 | 3.2 | 12.9 | 0.00 | 0.00 | 0.00 | 58 | 1013.3 |
| 20260506141540 | 13 | 62 | 3.2 | 19.3 | 0.00 | 0.00 | 0.00 | 56 | 1013.1 |
| 20260506140034 | 12 | 302 | 6.4 | 12.9 | 0.00 | 0.00 | 0.00 | 57 | 1013.2 |
| 20260506134530 | 12 | 319 | 4.8 | 19.3 | 0.00 | 0.00 | 0.00 | 57 | 1013.4 |
| 20260506133030 | 13 | 51 | 8.0 | 20.9 | 0.00 | 0.00 | 0.00 | 54 | 1013.2 |
| 20260506131529 | 12 | 42 | 4.8 | 16.1 | 0.00 | 0.00 | 0.00 | 56 | 1013.2 |
| 20260506130030 | 13 | 356 | 3.2 | 14.5 | 0.00 | 0.00 | 0.00 | 58 | 1013.4 |
| 20260506124529 | 12 | 70 | 6.4 | 14.5 | 0.00 | 0.00 | 0.00 | 57 | 1013.5 |
| 20260506123030 | 13 | 349 | 3.2 | 16.1 | 0.00 | 0.00 | 0.00 | 58 | 1013.5 |
| 20260506121530 | 12 | 15 | 4.8 | 14.5 | 0.00 | 0.00 | 0.00 | 57 | 1013.4 |
| 20260506120049 | 12 | 39 | 6.4 | 17.7 | 0.00 | 0.00 | 0.00 | 63 | 1013.5 |
| 20260506114534 | 12 | 302 | 4.8 | 17.7 | 0.00 | 0.00 | 0.00 | 63 | 1013.4 |
| 20260506113030 | 12 | 23 | 6.4 | 17.7 | 0.00 | 0.00 | 0.00 | 62 | 1013.5 |
| 20260506111531 | 12 | 344 | 6.4 | 14.5 | 0.00 | 0.00 | 0.00 | 61 | 1013.7 |
| 20260506110032 | 11 | 30 | 8.0 | 20.9 | 0.00 | 0.00 | 0.00 | 60 | 1013.7 |
| 20260506104539 | 11 | 294 | 6.4 | 20.9 | 0.00 | 0.00 | 0.00 | 60 | 1013.7 |
| 20260506103040 | 11 | 8 | 6.4 | 19.3 | 0.00 | 0.00 | 0.00 | 61 | 1013.6 |
| 20260506101532 | 11 | 304 | 4.8 | 12.9 | 0.00 | 0.00 | 0.00 | 65 | 1013.6 |
| 20260506100031 | 10 | 0 | 4.8 | 17.7 | 0.00 | 0.00 | 0.00 | 65 | 1013.6 |
| 20260506094530 | 10 | 33 | 8.0 | 16.1 | 0.00 | 0.00 | 0.00 | 65 | 1013.6 |
| 20260506093031 | 10 | 37 | 6.4 | 19.3 | 0.00 | 0.00 | 0.00 | 67 | 1013.5 |
| 20260506091530 | 10 | 322 | 4.8 | 16.1 | 0.00 | 0.00 | 0.00 | 70 | 1013.6 |
| 20260506090031 | 10 | 317 | 6.4 | 17.7 | 0.00 | 0.00 | 0.00 | 69 | 1013.6 |
| 20260506084606 | 9 | 4 | 3.2 | 14.5 | 0.00 | 0.00 | 0.00 | 73 | 1013.7 |
| 20260506083029 | 9 | 347 | 4.8 | 16.1 | 0.00 | 0.00 | 0.00 | 73 | 1013.7 |
| 20260506081540 | 8 | 359 | 6.4 | 16.1 | 0.00 | 0.00 | 0.00 | 75 | 1013.7 |
| 20260506073030 | 8 | 59 | 6.4 | 16.1 | 0.00 | 0.00 | 0.00 | 77 | 1013.6 |
| 20260506071534 | 8 | 30 | 4.8 | 14.5 | 0.00 | 0.00 | 0.00 | 77 | 1013.5 |
| 20260506061530 | 7 | 115 | 4.8 | 11.3 | 0.00 | 0.00 | 0.00 | 83 | 1013.3 |
| 20260506044536 | 7 | 48 | 1.6 | 11.3 | 0.00 | 0.00 | 0.00 | 85 | 1012.9 |
| 20260506043030 | 7 | 41 | 1.6 | 11.3 | 0.00 | 0.00 | 0.00 | 85 | 1012.8 |
| 20260506041530 | 7 | 47 | 1.6 | 9.7 | 0.00 | 0.00 | 0.00 | 85 | 1012.7 |
| 20260506040036 | 7 | 19 | 1.6 | 9.7 | 0.00 | 0.00 | 0.00 | 85 | 1012.7 |
| 20260506034533 | 8 | 0 | 3.2 | 9.7 | 0.00 | 0.00 | 0.00 | 85 | 1012.7 |
| 20260506033030 | 8 | 41 | 3.2 | 11.3 | 0.00 | 0.00 | 0.00 | 86 | 1012.7 |
| 20260506031539 | 8 | 321 | 1.6 | 6.4 | 0.00 | 0.00 | 0.00 | 86 | 1012.7 |
| 20260506030031 | 8 | 22 | 1.6 | 4.8 | 0.00 | 0.00 | 0.00 | 86 | 1012.7 |
| 20260506024533 | 8 | 36 | 1.6 | 6.4 | 0.00 | 0.00 | 0.00 | 85 | 1012.8 |
| 20260506023050 | 8 | 25 | 0.0 | 8.0 | 0.00 | 0.00 | 0.00 | 84 | 1012.7 |
| 20260506021552 | 8 | 0 | 1.6 | 11.3 | 0.00 | 0.00 | 0.00 | 83 | 1012.7 |
| 20260506020032 | 8 | 58 | 0.0 | 6.4 | 0.00 | 0.00 | 0.00 | 82 | 1012.9 |
| 20260506014532 | 8 | 34 | 0.0 | 9.7 | 0.00 | 0.00 | 0.00 | 81 | 1012.9 |
| 20260506013035 | 8 | 72 | 1.6 | 12.9 | 0.00 | 0.00 | 0.00 | 80 | 1012.9 |
| 20260506011531 | 9 | 67 | 1.6 | 14.5 | 0.00 | 0.00 | 0.00 | 80 | 1013.0 |
| 20260506010032 | 9 | 36 | 4.8 | 12.9 | 0.00 | 0.00 | 0.00 | 80 | 1013.1 |
| 20260506004534 | 9 | 81 | 4.8 | 14.5 | 0.00 | 0.00 | 0.00 | 81 | 1012.9 |
| 20260506003032 | 9 | 300 | 3.2 | 11.3 | 0.00 | 0.00 | 0.00 | 82 | 1013.0 |
| 20260506001532 | 10 | 312 | 3.2 | 9.7 | 0.00 | 0.00 | 0.00 | 82 | 1013.0 |
| 20260506000030 | 10 | 96 | 1.6 | 11.3 | 0.00 | 0.00 | 0.00 | 82 | 1013.0 |
| 20260505234532 | 10 | 345 | 1.6 | 8.0 | 0.00 | 0.00 | 0.00 | 82 | 1013.0 |
| 20260505233035 | 10 | 0 | 0.0 | 8.0 | 0.00 | 0.00 | 0.00 | 82 | 1013.1 |
| 20260505231546 | 10 | 0 | 3.2 | 11.3 | 0.00 | 0.00 | 0.00 | 80 | 1012.9 |
| 20260505230030 | 11 | 65 | 0.0 | 11.3 | 0.00 | 0.00 | 0.00 | 78 | 1012.9 |
| 20260505224532 | 11 | 34 | 3.2 | 9.7 | 0.00 | 0.00 | 0.00 | 77 | 1012.9 |
| 20260505223031 | 11 | 14 | 1.6 | 9.7 | 0.00 | 0.00 | 0.00 | 77 | 1012.7 |